Monticello, AR

3:15 PM CDT on May 26, 2017 (GMT -0500)
Monticello Municipal-Ellis

Weather History for KLLQ - February, 2014

Change the Weather History Date:

Sunday, February 23, 2014

  Actual Average Record
Temperature  
Mean Temperature 56 °F -  
Max Temperature 70 °F 58 °F 84 °F (2012)
Min Temperature 41 °F 36 °F 7 °F (1963)
Degree Days  
Heating Degree Days 10    
Growing Degree Days 6 (Base 50)    
Moisture  
Dew Point 43 °F    
Average Humidity 63    
Maximum Humidity 79    
Minimum Humidity 57    
Precipitation  
Precipitation 0.00 in - - ()
Sea Level Pressure  
Sea Level Pressure 30.01 in    
Wind  
Wind Speed 4 mph (North)    
Max Wind Speed 16 mph    
Max Gust Speed 22 mph    
Visibility 10 miles    
Events Rain    
Averages and records for this station are not official NWS values.
T = Trace of Precipitation, MM = Missing Value Source: NWS Daily Summary

Daily Weather History Graph

Daily Weather History Graph

Search for Another Location

Airport or City:

Trip Planner

Search our weather history database for the weather conditions in past years. The results will help you decide how hot, cold, wet, or windy it might be!

Date:

Astronomy

Feb. 23, 2014 Rise Set
Actual Time 6:42 AM CST 5:58 PM CST
Civil Twilight 6:17 AM CST 6:23 PM CST
Nautical Twilight 5:48 AM CST 6:52 PM CST
Astronomical Twilight 5:19 AM CST 7:21 PM CST
Moon 1:32 AM CST (2/23) 12:09 PM CST (2/23)
Length of Visible Light 12h 06m
Length of Day
11h 16m
Last Quarter, 38% of the Moon is Illuminated
Feb 23
Last Quarter
Mar 1
New
Mar 8
First Quarter
Mar 16
Full
Mar 23
Last Quarter

Hourly Weather History & Observations

Time (CST) Temp. Windchill Dew Point Humidity Pressure Visibility Wind Dir Wind Speed Gust Speed Precip Events Conditions
12:53 AM 41.0 °F - 35.1 °F 79% 29.99 in 10.0 mi Calm Calm - N/A   Clear
1:53 AM 48.0 °F - 35.1 °F 61% 29.98 in 10.0 mi South 3.5 mph - N/A   Clear
2:53 AM 50.0 °F - 36.0 °F 59% 29.96 in 10.0 mi South 4.6 mph - N/A   Clear
3:53 AM 46.9 °F - 35.1 °F 63% 29.95 in 10.0 mi SSE 3.5 mph - N/A   Clear
4:53 AM 46.9 °F - 36.0 °F 66% 29.95 in 10.0 mi Calm Calm - N/A   Clear
5:53 AM 48.0 °F - 36.0 °F 63% 29.95 in 10.0 mi Calm Calm - 0.00 in   Clear
6:53 AM 48.9 °F - 37.0 °F 64% 29.96 in 10.0 mi Calm Calm - N/A   Clear
7:53 AM 54.0 °F - 39.0 °F 57% 29.98 in 10.0 mi SSW 4.6 mph - N/A   Clear
8:53 AM 59.0 °F - 46.0 °F 62% 29.99 in 10.0 mi WSW 5.8 mph - 0.00 in   Clear
9:53 AM 62.1 °F - 48.9 °F 62% 30.00 in 10.0 mi Variable 4.6 mph - 0.00 in Rain Light Rain
10:05 AM 62.6 °F - 48.2 °F 59% 30.00 in 10.0 mi West 5.8 mph - 0.00 in Rain Light Rain
10:39 AM 64.4 °F - 51.8 °F 64% 30.00 in 10.0 mi Variable 5.8 mph - 0.00 in   Scattered Clouds
10:53 AM 66.0 °F - 52.0 °F 60% 30.00 in 10.0 mi West 6.9 mph - 0.00 in   Partly Cloudy
11:53 AM 69.1 °F - 54.0 °F 58% 29.97 in 10.0 mi NW 6.9 mph - 0.00 in   Clear
12:53 PM 70.0 °F - 54.0 °F 57% 29.96 in 10.0 mi Variable 4.6 mph - N/A   Overcast
1:53 PM 69.1 °F - 53.1 °F 57% 29.95 in 10.0 mi Calm Calm - N/A   Overcast
2:53 PM 66.9 °F - 54.0 °F 63% 29.95 in 10.0 mi NE 16.1 mph - N/A   Overcast
3:53 PM 66.9 °F - 52.0 °F 59% 29.97 in 10.0 mi NNE 8.1 mph - N/A   Overcast
4:53 PM 59.0 °F - 44.1 °F 58% 30.02 in 10.0 mi NNE 9.2 mph 18.4 mph N/A   Overcast
5:53 PM 54.0 °F - 42.1 °F 64% 30.05 in 10.0 mi North 10.4 mph 21.9 mph N/A   Overcast
6:53 PM 51.1 °F - 39.9 °F 66% 30.08 in 10.0 mi Variable 6.9 mph 18.4 mph 0.00 in   Overcast
7:53 PM 51.1 °F - 39.9 °F 66% 30.10 in 10.0 mi North 8.1 mph - 0.00 in Rain Light Rain
8:53 PM 50.0 °F - 39.0 °F 66% 30.12 in 10.0 mi NNE 6.9 mph 16.1 mph 0.00 in   Overcast
9:53 PM 50.0 °F - 39.0 °F 66% 30.14 in 10.0 mi Variable 5.8 mph - N/A   Overcast
10:53 PM 46.9 °F - 36.0 °F 66% 30.15 in 10.0 mi NNE 10.4 mph 16.1 mph 0.00 in   Mostly Cloudy
11:53 PM 45.0 °F 40.6 °F 36.0 °F 71% 30.16 in 10.0 mi NNE 8.1 mph 17.3 mph N/A   Overcast